TimeCST,TemperatureF,Dew PointF,Humidity,Sea Level PressureIn,VisibilityMPH,Wind Direction,Wind SpeedMPH,Gust SpeedMPH,PrecipitationIn,Events,Conditions,WindDirDegrees,DateUTC
12:15 AM,8.6,0.1,68,30.42,10.0,NNW,10.4,16.1,N/A,,Clear,330,2013-01-24 06:15:00
12:35 AM,8.1,-0.2,69,30.43,10.0,NW,10.4,19.6,N/A,,Clear,320,2013-01-24 06:35:00
1:15 AM,6.8,-2.2,67,30.47,10.0,NW,10.4,17.3,N/A,,Clear,320,2013-01-24 07:15:00
1:35 AM,6.6,-3.1,64,30.48,10.0,NNW,10.4,16.1,N/A,,Clear,330,2013-01-24 07:35:00
1:55 AM,5.9,-3.8,64,30.49,10.0,NNW,11.5,17.3,N/A,,Clear,330,2013-01-24 07:55:00
2:15 AM,5.7,-4.0,64,30.51,10.0,NW,6.9,-,N/A,,Clear,320,2013-01-24 08:15:00
2:35 AM,5.0,-4.9,64,30.51,10.0,NNW,9.2,-,N/A,,Clear,330,2013-01-24 08:35:00
2:55 AM,4.8,-4.9,64,30.51,10.0,NNW,8.1,-,N/A,,Clear,330,2013-01-24 08:55:00
3:15 AM,4.6,-5.3,64,30.52,10.0,NNW,6.9,-,N/A,,Clear,330,2013-01-24 09:15:00
3:35 AM,4.6,-5.3,64,30.53,10.0,NNW,9.2,-,N/A,,Clear,330,2013-01-24 09:35:00
3:55 AM,4.1,-5.4,65,30.54,10.0,NNW,11.5,-,N/A,,Clear,330,2013-01-24 09:55:00
4:15 AM,4.1,-5.4,65,30.54,10.0,NW,11.5,-,N/A,,Clear,320,2013-01-24 10:15:00
4:35 AM,3.7,-5.4,66,30.54,10.0,NNW,9.2,-,N/A,,Clear,330,2013-01-24 10:35:00
4:55 AM,3.9,-5.8,64,30.56,10.0,NNW,5.8,-,N/A,,Clear,330,2013-01-24 10:55:00
5:15 AM,3.7,-5.8,65,30.57,10.0,NNW,6.9,-,N/A,,Clear,330,2013-01-24 11:15:00
5:35 AM,3.6,-5.8,65,30.56,10.0,NNW,5.8,-,N/A,,Clear,340,2013-01-24 11:35:00
5:55 AM,3.4,-6.0,65,30.59,10.0,NNW,6.9,-,N/A,,Clear,340,2013-01-24 11:55:00
6:15 AM,3.2,-5.3,68,30.57,10.0,North,4.6,-,N/A,,Clear,350,2013-01-24 12:15:00
6:35 AM,3.2,-5.4,67,30.57,10.0,North,11.5,-,N/A,,Clear,350,2013-01-24 12:35:00
6:55 AM,3.6,-5.8,65,30.59,10.0,North,5.8,-,N/A,,Clear,350,2013-01-24 12:55:00
7:15 AM,3.4,-5.8,66,30.59,10.0,NNW,5.8,-,N/A,,Clear,340,2013-01-24 13:15:00
7:35 AM,3.6,-5.6,66,30.59,10.0,North,5.8,-,N/A,,Clear,360,2013-01-24 13:35:00
7:55 AM,4.1,-4.9,66,30.60,10.0,North,9.2,-,N/A,,Clear,360,2013-01-24 13:55:00
8:15 AM,4.6,-4.9,65,30.62,10.0,North,9.2,-,N/A,,Clear,360,2013-01-24 14:15:00
8:35 AM,5.0,-4.5,65,30.63,10.0,North,9.2,-,N/A,,Clear,10,2013-01-24 14:35:00
8:55 AM,5.9,-4.0,64,30.63,10.0,North,8.1,-,N/A,,Clear,360,2013-01-24 14:55:00
9:15 AM,6.8,-3.6,62,30.64,10.0,North,6.9,-,N/A,,Clear,10,2013-01-24 15:15:00
9:35 AM,7.0,-4.0,61,30.64,10.0,NNE,6.9,-,N/A,,Clear,30,2013-01-24 15:35:00
9:55 AM,7.7,-3.5,60,30.63,10.0,NNE,6.9,-,N/A,,Clear,30,2013-01-24 15:55:00
10:15 AM,8.2,-3.1,60,30.63,10.0,NE,8.1,-,N/A,,Clear,40,2013-01-24 16:15:00
10:35 AM,9.0,-2.7,59,30.63,10.0,NE,5.8,-,N/A,,Clear,40,2013-01-24 16:35:00
10:55 AM,10.2,-2.0,58,30.62,10.0,NE,6.9,-,N/A,,Clear,40,2013-01-24 16:55:00
11:15 AM,11.1,-1.3,57,30.62,10.0,NE,4.6,-,N/A,,Clear,50,2013-01-24 17:15:00
11:35 AM,11.1,-1.8,56,30.61,10.0,NNE,3.5,-,N/A,,Clear,20,2013-01-24 17:35:00
12:15 PM,13.6,-0.9,52,30.59,10.0,NNE,3.5,-,N/A,,Clear,20,2013-01-24 18:15:00
12:55 PM,14.2,-3.3,46,30.58,10.0,North,3.5,-,N/A,,Clear,360,2013-01-24 18:55:00
1:15 PM,16.2,-3.3,42,30.56,10.0,Calm,Calm,-,N/A,,Clear,0,2013-01-24 19:15:00
1:35 PM,16.2,-4.2,41,30.55,10.0,Calm,Calm,-,N/A,,Clear,0,2013-01-24 19:35:00
1:55 PM,17.6,-3.5,39,30.53,10.0,Calm,Calm,-,N/A,,Clear,0,2013-01-24 19:55:00
2:15 PM,18.5,-4.7,36,30.53,10.0,ENE,5.8,-,N/A,,Clear,60,2013-01-24 20:15:00
2:35 PM,18.5,-4.5,36,30.53,10.0,East,5.8,-,N/A,,Scattered Clouds,100,2013-01-24 20:35:00
2:55 PM,18.5,-4.7,36,30.53,10.0,Calm,Calm,-,N/A,,Mostly Cloudy,0,2013-01-24 20:55:00
3:15 PM,19.2,-5.3,34,30.52,10.0,ESE,6.9,-,N/A,,Overcast,110,2013-01-24 21:15:00
3:35 PM,19.6,-4.4,35,30.51,10.0,ESE,6.9,-,N/A,,Scattered Clouds,110,2013-01-24 21:35:00
3:55 PM,19.2,-3.5,37,30.50,10.0,East,6.9,-,N/A,,Clear,90,2013-01-24 21:55:00
4:15 PM,19.2,-2.2,39,30.49,10.0,ESE,6.9,-,N/A,,Clear,110,2013-01-24 22:15:00
4:35 PM,19.2,-1.3,41,30.50,10.0,ESE,8.1,-,N/A,,Clear,120,2013-01-24 22:35:00
4:55 PM,19.0,-0.9,42,30.48,10.0,East,6.9,-,N/A,,Clear,90,2013-01-24 22:55:00
5:15 PM,18.9,-0.6,43,30.47,10.0,East,5.8,-,N/A,,Clear,80,2013-01-24 23:15:00
5:35 PM,18.9,0.5,45,30.46,10.0,East,8.1,-,N/A,,Clear,80,2013-01-24 23:35:00
5:55 PM,18.9,2.1,48,30.46,10.0,East,9.2,-,N/A,,Clear,80,2013-01-24 23:55:00
6:15 PM,18.5,3.2,51,30.45,10.0,East,8.1,-,N/A,,Clear,80,2013-01-25 00:15:00
6:35 PM,18.5,5.4,57,30.42,10.0,East,6.9,-,N/A,,Clear,80,2013-01-25 00:35:00
6:55 PM,18.9,5.9,57,30.42,10.0,East,4.6,-,N/A,,Clear,90,2013-01-25 00:55:00
7:15 PM,19.0,7.2,60,30.42,10.0,ESE,4.6,-,N/A,,Clear,110,2013-01-25 01:15:00
7:35 PM,19.9,7.5,59,30.41,10.0,East,4.6,-,N/A,,Clear,100,2013-01-25 01:35:00
7:55 PM,19.9,7.5,59,30.41,10.0,East,3.5,-,N/A,,Clear,90,2013-01-25 01:55:00
8:15 PM,19.9,7.9,60,30.41,10.0,East,3.5,-,N/A,,Clear,100,2013-01-25 02:15:00
8:35 PM,19.9,7.9,60,30.39,10.0,ESE,6.9,-,N/A,,Clear,110,2013-01-25 02:35:00
8:55 PM,21.0,8.4,58,30.39,10.0,East,6.9,-,N/A,,Clear,100,2013-01-25 02:55:00
9:15 PM,21.2,8.4,58,30.39,10.0,East,6.9,-,N/A,,Clear,100,2013-01-25 03:15:00
9:35 PM,21.2,7.7,56,30.37,10.0,ESE,9.2,-,N/A,,Clear,110,2013-01-25 03:35:00
9:55 PM,21.2,6.8,54,30.34,10.0,ESE,11.5,-,N/A,,Clear,110,2013-01-25 03:55:00
10:15 PM,21.2,5.5,51,30.33,10.0,ESE,13.8,18.4,N/A,,Scattered Clouds,120,2013-01-25 04:15:00
10:35 PM,21.2,4.5,49,30.33,10.0,ESE,13.8,-,N/A,,Scattered Clouds,120,2013-01-25 04:35:00
10:55 PM,21.2,4.3,48,30.34,10.0,SE,10.4,-,N/A,,Scattered Clouds,130,2013-01-25 04:55:00
11:15 PM,21.2,4.1,48,30.35,10.0,ESE,11.5,-,N/A,,Mostly Cloudy,120,2013-01-25 05:15:00
11:35 PM,21.2,4.3,48,30.34,10.0,ESE,11.5,-,N/A,,Overcast,120,2013-01-25 05:35:00
11:55 PM,21.2,4.5,49,30.32,10.0,ESE,12.7,-,N/A,,Overcast,120,2013-01-25 05:55:00